User: anonymous   Login
Location: Wawayanda State Park
(41.1833°N, 74.4333°W)
Time: 11:22:32
(UTC-04:00)
Language:

Landsat 7 - Orbit

View from above orbital plane
View from above orbital plane
View from above satellite
View from above satellite

Ground track
Ground track

The orbit data is extracted from the following two-line orbital elements,

1 25682U 99020A   16178.07428390  .00000375  00000-0  93259-4 0  9996
2 25682  98.2115 248.3554 0001189  58.0726 302.0585 14.57113192914730
Epoch (UTC): 26 June 2016 01:46:58
Eccentricity: 0.0001189
inclination: 98.2115°
perigee height: 701 km
apogee height: 703 km
right ascension of ascending node: 248.3554°
argument of perigee: 58.0726°
revolutions per day: 14.57113192
mean anomaly at epoch: 302.0585°
orbit number at epoch: 91473

The dashed part of the orbit path shows where the satellite is in the earth's shadow,  

DLR